CAPE
1 0 0 nan nan nan 0 nan nan nan nan nan 0 0 1 1 nan nan 0 0 0 0 0 0 0 0 0 5 7 7 11 14 17 17 21 24 24 24 29 33 33 36 36 37 37 33 30 27 27 26 28 27 28 28 29 29 29 33 33 35 35 41 46 48 48 49 49 49 45 45 40 34 30 30 26 26 24 24 26 27 27 29 31 32 32 33
0 1 0 nan nan nan 0 0 nan nan nan nan 0 0 1 1 1 1 1 1 1 0 1 1 1 1 0 2 6 6 10 12 18 18 22 24 28 28 27 29 29 31 26 23 23 19 17 16 16 17 18 19 21 21 23 25 25 29 31 35 35 38 43 40 40 41 42 41 37 37 33 29 26 26 22 21 23 23 27 28 28 30 31 34 34 36
0 0 0 0 0 0 1 0 nan nan nan nan 0 0 1 0 1 1 1 1 1 1 1 1 1 0 nan 0 5 5 6 9 14 14 17 19 18 18 18 17 17 17 14 11 11 11 10 11 11 12 14 16 18 18 23 24 24 28 30 34 34 34 34 34 34 35 32 32 29 29 24 24 20 20 20 22 25 25 26 28 28 33 35 38 38 42
0 0 1 0 0 0 1 0 0 0 0 0 0 0 0 0 1 1 2 1 1 0 0 nan nan nan nan nan 0 0 3 7 11 11 11 11 11 11 10 8 8 6 4 4 4 5 7 9 9 10 13 17 19 19 23 27 27 28 29 30 30 30 33 30 30 30 32 28 25 25 24 23 22 22 24 25 28 28 30 33 33 34 37 40 40 41
nan 0 1 0 0 0 1 1 1 1 3 2 1 1 0 1 1 1 0 nan nan nan nan nan nan nan nan nan nan nan 0 7 10 10 9 6 4 4 2 1 1 1 1 2 2 4 7 9 9 12 16 19 22 22 26 28 28 25 25 27 27 24 25 25 25 26 26 24 27 27 26 29 32 32 33 32 31 31 32 31 31 31 34 36 36 42
nan nan 1 1 1 1 2 1 2 2 3 3 1 1 1 0 nan nan nan nan nan nan nan nan nan nan nan nan nan nan nan 4 6 6 3 0 nan nan nan nan nan nan 0 2 2 5 10 15 15 18 21 24 24 24 24 25 25 21 21 18 18 17 17 18 18 18 16 18 20 20 22 24 27 27 30 27 28 28 29 29 29 29 31 33 33 36
0 2 1 1 1 1 1 2 3 3 2 2 0 0 nan nan nan nan nan nan nan nan nan nan nan nan nan nan nan nan nan nan nan nan nan nan nan nan nan nan nan nan 1 4 4 10 15 19 19 21 24 25 21 21 19 17 17 14 12 13 13 13 11 11 11 11 12 12 14 14 16 18 20 20 21 22 23 23 23 24 24 27 29 31 31 34
0 0 nan nan nan nan nan nan nan nan nan nan nan nan nan nan nan nan nan nan nan nan nan nan nan nan nan nan nan nan nan nan nan nan nan nan nan nan nan nan nan nan 1 3 3 7 12 13 13 13 13 12 14 14 12 9 9 7 5 4 4 2 2 2 2 3 4 5 7 7 9 12 13 13 14 13 15 15 16 19 19 24 29 29 29 34
nan nan nan nan nan nan nan nan nan nan nan nan nan nan nan nan nan nan nan nan nan nan nan nan nan nan nan nan nan nan nan nan nan nan nan nan nan nan nan nan nan nan 0 2 2 6 6 6 6 7 9 9 8 8 7 5 5 3 1 0 0 0 0 1 1 1 3 4 6 6 8 10 11 11 12 12 13 13 14 16 16 21 24 29 29 34
nan nan nan nan nan nan nan nan nan nan nan nan nan nan nan nan nan nan nan nan nan nan nan nan nan nan nan nan nan nan nan nan nan nan nan nan nan nan nan nan nan nan nan 1 1 2 1 1 1 2 4 4 4 4 2 0 0 nan nan nan nan nan nan 0 0 1 2 4 5 5 8 9 10 10 11 12 13 13 15 18 18 19 24 29 29 32
nan nan nan nan nan nan nan nan nan nan nan nan nan nan nan nan nan nan nan nan nan nan nan nan nan nan nan nan nan nan nan nan nan nan nan nan nan nan nan nan nan nan nan nan nan nan nan nan nan nan nan nan nan nan nan nan nan nan nan nan nan nan nan 0 0 1 3 6 8 8 9 10 10 10 12 14 17 17 18 18 18 21 24 30 30 33
nan nan nan nan nan nan nan nan nan nan nan nan nan nan nan nan nan nan nan nan nan nan nan nan nan nan nan nan nan nan nan nan nan nan nan nan nan nan nan nan nan nan nan nan nan nan nan nan nan nan nan nan nan nan nan nan nan nan nan nan nan nan 0 1 1 3 5 8 9 9 11 11 14 14 15 16 18 18 20 23 23 23 26 33 33 37
nan nan nan nan nan nan nan nan nan nan nan nan nan nan nan nan nan nan nan nan nan nan nan nan nan nan nan nan nan nan nan nan nan nan nan nan nan nan nan nan nan nan nan nan nan nan nan nan nan nan nan nan nan nan nan nan nan nan nan nan nan 0 1 4 4 6 8 9 10 10 12 13 14 14 16 18 20 20 22 23 23 26 31 36 36 41
nan nan nan nan nan nan nan nan nan nan nan nan nan nan nan nan nan nan nan nan nan nan nan nan nan nan nan nan nan nan nan nan nan nan nan nan nan nan nan nan nan nan nan nan nan nan nan nan nan nan nan nan nan nan nan nan nan nan nan 0 0 2 4 6 6 8 9 11 12 12 13 14 14 14 16 18 20 20 23 25 25 28 30 34 34 36
nan nan nan nan nan nan nan nan nan nan nan nan nan nan nan nan nan nan nan nan nan nan nan nan nan nan nan nan nan nan nan nan nan nan nan nan nan nan nan nan nan nan nan nan nan nan nan nan nan nan nan nan nan nan nan nan nan nan 0 2 2 4 5 7 7 7 8 10 12 12 14 16 16 16 18 21 21 21 23 25 25 26 25 28 28 28
nan nan nan nan nan nan nan nan nan nan nan nan nan nan nan nan nan nan nan nan nan nan nan nan nan nan nan nan nan nan nan nan nan nan nan nan nan nan nan nan nan nan nan nan nan nan nan nan nan nan nan nan nan nan nan nan nan nan 1 2 2 3 5 6 6 6 9 10 12 12 15 16 18 18 19 19 19 19 19 21 21 22 22 24 24 25
nan nan nan nan nan nan nan nan nan nan nan nan nan nan nan nan nan nan nan nan nan nan nan nan nan nan nan nan nan nan nan nan nan nan nan nan nan nan nan nan nan nan nan nan nan nan nan nan nan nan nan nan nan nan nan nan nan nan 0 1 1 2 3 5 5 6 8 11 13 13 15 16 15 15 15 15 16 16 17 20 20 21 24 27 27 29
nan nan nan nan nan nan nan nan nan nan nan nan nan nan nan nan nan nan nan nan nan nan nan nan nan nan nan nan nan nan nan nan nan nan nan nan nan nan nan nan nan nan nan nan nan nan nan nan nan nan nan nan nan nan nan nan nan nan nan 1 1 1 3 4 4 6 9 11 14 14 14 14 14 14 15 16 17 17 19 21 21 24 26 29 29 29
nan nan nan nan nan nan nan nan nan nan nan nan nan nan nan nan nan nan nan nan nan nan nan nan nan nan nan nan nan nan nan nan nan nan nan nan nan nan nan nan nan nan nan nan nan nan nan nan nan nan nan nan nan nan nan nan nan nan nan 1 1 2 3 6 6 8 10 12 13 13 15 15 15 15 15 15 16 16 18 20 20 22 23 24 24 23
nan nan nan nan nan nan nan nan nan nan nan nan nan nan nan nan nan nan nan nan nan nan nan nan nan nan nan nan nan nan nan nan nan nan nan nan nan nan nan nan nan nan nan nan nan nan nan nan nan nan nan nan nan nan nan nan nan nan nan 0 0 2 3 5 5 7 9 10 13 13 14 15 15 15 14 16 16 16 17 19 19 20 19 19 19 20
nan nan nan nan nan nan nan nan nan nan nan nan nan nan nan nan nan nan nan nan nan nan nan nan nan nan nan nan nan nan nan nan nan nan nan nan nan nan nan nan nan nan nan nan nan nan nan nan nan nan nan nan nan nan nan nan nan nan 0 1 1 2 3 5 5 6 8 10 11 11 12 13 13 13 14 15 15 15 17 18 18 17 17 17 17 19
nan nan nan nan nan nan nan nan nan nan nan nan nan nan nan nan nan nan nan nan nan nan nan nan nan nan nan nan nan nan nan nan nan nan nan nan nan nan nan nan nan nan nan nan nan nan nan nan nan nan nan nan nan nan nan nan nan nan 0 1 1 1 2 4 4 6 7 8 9 9 10 11 12 12 12 13 13 13 14 16 16 17 18 17 17 18
nan nan nan nan nan nan nan nan nan nan nan nan nan nan nan nan nan nan nan nan nan nan nan nan nan nan nan nan nan nan nan nan nan nan nan nan nan nan nan nan nan nan nan nan nan nan nan nan nan nan nan nan nan nan nan nan nan nan nan 0 0 1 2 3 3 4 6 7 8 8 8 8 9 9 10 11 11 11 13 13 13 15 17 18 18 20
nan nan nan nan nan nan nan nan nan nan nan nan nan nan nan nan nan nan nan nan nan nan nan nan nan nan nan nan nan nan nan nan nan nan nan nan nan nan nan nan nan nan nan nan nan nan nan nan nan nan nan nan nan nan nan nan nan nan nan 0 0 1 2 3 3 4 5 6 7 7 8 9 9 9 9 10 11 11 12 12 12 14 16 17 17 19
nan nan nan nan nan nan nan nan nan nan nan nan nan nan nan nan nan nan nan nan nan nan nan nan nan nan nan nan nan nan nan nan nan nan nan nan nan nan nan nan nan nan nan nan nan nan nan nan nan nan nan nan nan nan nan nan nan nan nan 0 0 1 1 2 2 3 4 5 7 7 8 8 9 9 9 10 10 10 11 13 13 14 15 15 15 17
nan nan nan nan nan nan nan 13 28 28 nan nan nan nan nan nan nan nan nan nan nan nan nan nan nan 0 nan nan nan nan nan nan nan nan nan nan nan nan nan nan nan nan nan nan nan nan nan nan nan nan nan nan nan nan nan nan nan nan nan nan nan 0 0 1 1 2 3 4 6 6 7 8 9 9 9 10 11 11 12 13 13 13 14 14 14 15
4 nan 4 12 12 16 19 19 20 20 24 8 nan nan nan nan nan nan nan nan nan nan nan nan nan nan nan nan nan nan nan nan nan nan nan nan nan nan nan nan nan nan nan nan nan nan nan nan nan nan nan nan nan nan nan nan nan nan nan nan nan nan nan 0 0 1 2 3 4 4 6 7 9 9 9 10 12 12 12 13 13 14 15 13 13 14
nan nan nan 0 0 1 6 6 5 5 7 12 19 19 nan nan nan nan nan nan nan nan nan nan nan nan nan nan nan nan nan nan nan nan nan nan nan nan nan nan nan nan nan nan nan nan nan nan nan nan nan nan nan nan nan nan nan nan nan nan nan nan nan nan nan 0 1 2 3 3 5 7 10 10 11 11 12 12 13 13 13 15 14 8 8 nan
nan nan nan nan nan 0 1 nan nan nan 2 3 3 3 1 nan nan nan nan nan nan nan nan nan nan nan nan nan nan nan nan nan nan nan nan nan nan nan nan nan nan nan nan nan nan nan nan nan nan nan nan nan nan nan nan nan nan nan nan nan nan nan nan nan nan nan 0 1 2 2 5 7 9 9 11 12 13 13 15 14 14 15 12 3 3 nan
nan nan nan nan nan nan nan nan nan nan nan 6 6 6 nan nan nan nan nan nan nan nan nan nan nan nan nan nan nan nan nan nan nan nan nan nan nan nan nan nan nan nan nan nan nan nan nan nan nan nan nan nan nan nan nan nan nan nan nan nan nan nan nan nan nan nan nan 1 2 2 5 7 8 8 10 12 14 14 14 15 15 11 4 nan nan nan
nan nan nan nan nan nan nan nan nan nan 0 nan nan nan nan nan nan nan nan nan nan nan nan nan nan nan nan nan nan nan nan nan nan nan nan nan nan nan nan nan nan nan nan nan nan nan nan nan nan nan nan nan nan nan nan nan nan nan nan nan nan nan nan nan nan nan 0 1 3 3 4 5 7 7 8 11 13 13 13 15 15 10 1 nan nan nan
nan nan nan nan nan nan nan nan nan nan nan nan nan nan nan nan nan nan nan nan nan nan nan nan nan nan nan nan nan nan nan nan nan nan nan nan nan nan nan nan nan nan nan 0 0 nan nan nan nan nan nan nan nan nan nan nan nan nan nan nan nan nan nan nan nan nan nan 0 0 0 1 2 3 3 3 5 6 6 7 8 8 8 0 nan nan nan
nan nan nan nan nan nan nan nan nan nan nan nan nan nan nan nan 0 0 nan nan nan nan nan nan nan nan nan nan nan nan nan nan nan nan 1 nan nan nan nan nan nan nan nan nan nan nan nan nan nan nan nan nan nan nan nan nan nan nan nan nan nan nan nan nan nan nan nan nan nan nan 0 0 0 0 1 3 4 4 5 6 6 7 8 nan nan 0
nan nan nan nan nan nan nan nan nan nan nan nan nan nan nan nan nan nan nan nan nan nan nan nan nan nan nan nan nan nan nan nan nan nan 1 nan nan nan nan nan nan nan nan nan nan nan nan nan nan nan nan nan nan nan nan nan nan nan nan nan nan nan nan nan nan nan nan nan nan nan nan nan nan nan nan nan 1 1 3 6 6 9 14 8 8 3
nan nan nan nan nan nan nan nan nan nan nan nan nan nan nan nan nan nan nan nan nan nan nan nan nan nan nan nan nan nan nan nan nan nan 1 nan nan nan nan nan nan nan nan nan nan nan nan nan nan 0 nan nan nan nan nan nan nan nan nan nan nan nan nan nan nan nan nan nan nan nan nan nan nan nan nan nan 1 1 6 9 9 12 13 19 19 12
nan nan nan nan nan nan nan nan nan nan nan nan nan nan nan nan nan nan nan nan nan nan nan nan nan nan nan nan nan nan nan nan nan nan 3 0 nan nan nan nan nan 1 nan 0 0 nan nan nan nan 1 0 nan nan nan nan nan nan nan nan nan nan nan nan nan nan nan nan nan nan nan nan nan nan nan nan nan 4 4 8 10 10 11 10 12 12 12
nan nan nan nan nan nan nan nan nan nan nan nan nan nan nan nan nan nan nan nan nan nan nan nan nan nan nan nan nan nan nan nan nan nan 0 0 nan nan nan 0 0 1 nan nan nan 0 0 nan nan nan nan nan nan nan nan nan nan nan nan nan nan nan nan nan nan nan nan nan nan nan nan nan nan nan nan 0 1 1 4 6 6 3 6 7 7 9
nan nan nan nan nan nan nan nan nan nan nan nan nan nan nan nan nan nan nan nan nan nan nan nan nan nan nan 3 0 0 nan nan nan nan nan nan nan nan nan 0 0 0 1 0 0 0 0 nan nan nan nan nan nan nan nan nan nan nan nan nan nan nan nan nan nan nan nan nan nan nan nan nan nan nan nan nan nan nan nan nan nan nan 2 3 3 7
nan nan nan nan nan nan nan nan nan nan nan nan nan nan nan nan nan nan nan nan nan nan nan nan nan nan nan nan 1 1 5 nan nan nan nan nan nan nan nan nan nan nan 0 0 0 nan nan nan nan nan nan nan nan nan nan nan nan nan nan nan nan nan nan nan nan nan nan nan nan nan nan nan nan nan nan nan nan nan nan nan nan nan nan nan nan nan
nan nan nan nan nan nan nan nan nan nan nan nan nan nan nan nan nan nan nan nan nan nan nan nan nan nan nan nan nan nan nan nan nan nan nan nan nan nan nan nan nan nan nan 0 0 0 nan nan nan nan nan nan nan nan nan nan nan nan 0 nan nan nan nan nan nan nan nan nan nan nan nan nan nan nan nan nan nan nan nan nan nan nan nan nan nan nan
nan nan nan nan nan nan 0 nan nan nan nan nan nan nan nan nan nan nan nan nan nan nan nan nan nan nan nan nan nan nan nan nan nan nan nan nan nan nan nan nan nan nan nan nan nan nan nan nan nan nan nan nan nan nan nan nan nan 1 3 nan nan nan nan nan nan nan nan nan nan nan nan nan nan nan nan nan nan nan nan nan nan nan nan nan nan nan
nan nan nan nan nan nan nan nan nan nan nan nan nan nan nan nan nan nan nan nan nan nan nan nan nan nan nan nan nan nan nan nan nan nan nan nan nan nan nan nan nan nan nan nan nan nan nan nan nan nan nan nan nan nan nan nan nan 0 1 nan nan nan nan nan nan nan nan nan nan nan nan nan nan nan nan nan nan nan nan nan nan nan nan nan nan nan
nan nan nan nan nan nan 0 0 nan nan nan nan nan nan nan nan nan nan nan nan nan nan nan nan nan nan nan nan nan nan nan nan nan nan nan nan nan nan nan nan nan nan nan nan nan nan nan nan nan nan nan nan nan nan nan nan nan nan nan nan nan nan nan nan nan nan nan nan nan nan nan nan nan nan nan nan nan nan nan nan nan nan nan nan nan nan
nan nan nan nan nan nan 0 nan nan nan nan nan nan nan nan nan nan nan nan nan nan nan nan nan nan nan nan nan nan nan nan nan nan nan nan nan nan nan nan nan nan nan nan nan nan nan nan nan nan nan nan nan nan nan nan nan nan nan nan nan nan nan nan nan nan nan nan nan nan nan nan nan nan nan nan nan nan nan nan nan nan nan nan nan nan nan
nan nan nan 1 1 1 nan nan nan nan nan nan nan nan nan nan nan nan nan nan nan nan nan nan nan nan nan nan nan nan nan nan nan nan nan nan nan nan nan nan nan nan nan nan nan nan nan nan nan nan nan nan nan nan nan nan nan nan nan 1 1 0 nan nan nan nan nan nan nan nan nan nan nan nan nan nan nan nan nan nan nan nan nan nan nan nan
nan nan nan nan nan nan nan nan nan nan nan nan nan nan nan nan nan nan nan nan nan nan nan nan nan nan 0 0 nan nan nan nan nan nan nan nan nan nan nan nan nan nan nan nan nan nan nan nan nan nan nan nan nan nan nan nan nan nan nan 0 0 nan nan nan nan nan nan nan nan nan nan nan nan nan nan nan nan nan nan nan nan nan nan nan nan nan
nan nan nan nan nan nan nan nan nan nan nan nan nan nan nan nan nan nan nan nan nan nan nan nan nan nan 0 0 nan nan nan nan nan nan nan nan nan nan nan nan nan nan nan nan nan nan nan nan nan nan nan nan nan nan nan nan nan nan nan nan nan nan nan nan nan nan nan nan nan nan nan nan nan nan nan nan nan nan nan nan nan nan nan nan nan nan
nan nan nan nan nan nan nan nan nan nan nan nan nan nan nan nan nan nan nan nan nan nan 0 nan nan nan nan nan nan nan nan nan nan nan nan nan nan nan nan nan nan nan nan nan nan nan nan nan nan nan nan nan nan nan nan nan nan nan nan nan nan nan nan nan nan nan nan nan nan nan nan nan nan nan nan nan 0 0 nan nan nan nan 0 0 0 0
nan nan nan nan nan nan nan nan nan nan nan nan nan nan nan nan 6 6 nan nan nan nan nan nan nan nan nan nan nan nan nan nan nan nan nan nan nan nan nan nan nan nan nan nan nan nan nan nan nan nan nan nan nan nan nan nan nan nan nan nan nan nan nan nan nan nan nan nan nan nan nan nan nan nan nan nan nan nan 0 nan nan nan nan nan nan nan
nan nan nan nan nan nan nan nan nan nan nan nan nan nan nan nan nan nan nan nan nan nan nan nan nan nan nan nan nan nan nan nan nan nan nan nan nan nan nan nan nan nan nan nan nan nan nan nan nan nan 0 nan nan nan nan nan nan nan nan nan nan nan nan nan nan nan nan nan nan nan nan nan nan nan nan 0 1 1 0 nan nan nan nan nan nan nan
nan nan nan nan nan nan nan nan nan nan nan 0 1 1 nan nan nan nan nan nan nan nan nan nan nan nan nan nan nan nan nan nan nan nan nan nan nan nan nan nan nan nan nan nan nan nan nan nan nan nan nan 5 nan nan nan nan nan nan nan nan nan nan nan nan nan nan nan nan nan nan nan nan nan nan 0 0 0 0 nan nan nan nan nan nan nan nan
CIN
-0 -0 -0 nan nan nan -0 nan nan nan nan nan -0 -0 -0 -0 nan nan -0 -0 -0 -0 -0 -0 -0 -0 -0 -0 -0 -0 -0 -0 -0 -0 -0 -0 -0 -0 -0 -0 -0 -0 -0 -0 -0 -0 -0 -0 -0 -0 -0 -0 -0 -0 -0 -0 -0 -0 -0 -0 -0 -0 -0 -0 -0 -0 -0 -0 -0 -0 -0 -0 -0 -0 -0 -0 -0 -0 -0 -0 -0 -0 -0 -0 -0 -0
-0 -0 -0 nan nan nan -0 -0 nan nan nan nan -0 -0 -0 -0 -0 -0 -0 -0 -0 -0 -0 -0 -0 -0 -0 -0 -0 -0 -0 -0 -0 -0 -0 -0 -0 -0 -0 -0 -0 -0 -0 -0 -0 -0 -0 -0 -0 -0 -0 -0 -0 -0 -0 -0 -0 -0 -0 -0 -0 -0 -0 -0 -0 -0 -0 -0 -0 -0 -0 -0 -0 -0 -0 -0 -0 -0 -0 -0 -0 -0 -0 -0 -0 -0
-0 -0 -0 -0 -0 -0 -0 -0 nan nan nan nan -0 -0 -0 -0 -0 -0 -0 -0 -0 -0 -0 -0 -0 -0 nan -0 -0 -0 -0 -0 -0 -0 -0 -0 -0 -0 -0 -0 -0 -0 -0 -0 -0 -0 -0 -0 -0 -0 -0 -0 -0 -0 -0 -0 -0 -0 -0 -0 -0 -0 -0 -0 -0 -0 -0 -0 -0 -0 -0 -0 -0 -0 -0 -0 -0 -0 -0 -0 -0 -0 -0 -0 -0 -0
-0 -0 -0 -0 -0 -0 -0 -0 -0 -0 -0 -0 -0 -0 -0 -0 -0 -0 -0 -0 -0 -0 -0 nan nan nan nan nan -0 -0 -0 -0 -0 -0 -0 -0 -0 -0 -0 -0 -0 -0 -0 -0 -0 -0 -0 -0 -0 -0 -0 -0 -0 -0 -0 -0 -0 -0 -0 -0 -0 -0 -0 -0 -0 -0 -0 -0 -0 -0 -0 -0 -0 -0 -0 -0 -0 -0 -0 -0 -0 -0 -0 -0 -0 -0
nan -0 -0 -0 -0 -0 -0 -0 -0 -0 -0 -0 -0 -0 -0 -0 -0 -0 -0 nan nan nan nan nan nan nan nan nan nan nan -0 -0 -0 -0 -0 -0 -0 -0 -0 -0 -0 -0 -0 -0 -0 -0 -0 -0 -0 -0 -0 -0 -0 -0 -0 -0 -0 -0 -0 -0 -0 -0 -0 -0 -0 -0 -0 -0 -0 -0 -0 -0 -0 -0 -0 -0 -0 -0 -0 -0 -0 -0 -0 -0 -0 -0
nan nan -0 -0 -0 -0 -0 -0 -0 -0 -0 -0 -0 -0 -0 -0 nan nan nan nan nan nan nan nan nan nan nan nan nan nan nan -0 -0 -0 -0 -0 nan nan nan nan nan nan -0 -0 -0 -0 -0 -0 -0 -0 -0 -0 -0 -0 -0 -0 -0 -0 -0 -0 -0 -0 -0 -0 -0 -0 -0 -0 -0 -0 -0 -0 -0 -0 -0 -0 -0 -0 -0 -0 -0 -0 -0 -0 -0 -0
-0 -0 -0 -0 -0 -0 -0 -0 -0 -0 -0 -0 -0 -0 nan nan nan nan nan nan nan nan nan nan nan nan nan nan nan nan nan nan nan nan nan nan nan nan nan nan nan nan -0 -0 -0 -0 -0 -0 -0 -0 -0 -0 -0 -0 -0 -0 -0 -0 -0 -0 -0 -0 -0 -0 -0 -0 -0 -0 -0 -0 -0 -0 -0 -0 -0 -0 -0 -0 -0 -0 -0 -0 -0 -0 -0 -0
-0 -0 nan nan nan nan nan nan nan nan nan nan nan nan nan nan nan nan nan nan nan nan nan nan nan nan nan nan nan nan nan nan nan nan nan nan nan nan nan nan nan nan -0 -0 -0 -0 -0 -0 -0 -0 -0 -0 -0 -0 -0 -0 -0 -0 -0 -0 -0 -0 -0 -0 -0 -0 -0 -0 -0 -0 -0 -0 -0 -0 -0 -0 -0 -0 -0 -0 -0 -0 -0 -0 -0 -0
nan nan nan nan nan nan nan nan nan nan nan nan nan nan nan nan nan nan nan nan nan nan nan nan nan nan nan nan nan nan nan nan nan nan nan nan nan nan nan nan nan nan -0 -0 -0 -0 -0 -0 -0 -0 -0 -0 -0 -0 -0 -0 -0 -0 -0 -0 -0 -0 -0 -0 -0 -0 -0 -0 -0 -0 -0 -0 -0 -0 -0 -0 -0 -0 -0 -0 -0 -0 -0 -0 -0 -0
nan nan nan nan nan nan nan nan nan nan nan nan nan nan nan nan nan nan nan nan nan nan nan nan nan nan nan nan nan nan nan nan nan nan nan nan nan nan nan nan nan nan nan -0 -0 -0 -0 -0 -0 -0 -0 -0 -0 -0 -0 -0 -0 nan nan nan nan nan nan -0 -0 -0 -0 -0 -0 -0 -0 -0 -0 -0 -0 -0 -0 -0 -0 -0 -0 -0 -0 -0 -0 -0
nan nan nan nan nan nan nan nan nan nan nan nan nan nan nan nan nan nan nan nan nan nan nan nan nan nan nan nan nan nan nan nan nan nan nan nan nan nan nan nan nan nan nan nan nan nan nan nan nan nan nan nan nan nan nan nan nan nan nan nan nan nan nan -0 -0 -0 -0 -0 -0 -0 -0 -0 -0 -0 -0 -0 -0 -0 -0 -0 -0 -0 -0 -0 -0 -0
nan nan nan nan nan nan nan nan nan nan nan nan nan nan nan nan nan nan nan nan nan nan nan nan nan nan nan nan nan nan nan nan nan nan nan nan nan nan nan nan nan nan nan nan nan nan nan nan nan nan nan nan nan nan nan nan nan nan nan nan nan nan -0 -0 -0 -0 -0 -0 -0 -0 -0 -0 -0 -0 -0 -0 -0 -0 -0 -0 -0 -0 -0 -0 -0 -0
nan nan nan nan nan nan nan nan nan nan nan nan nan nan nan nan nan nan nan nan nan nan nan nan nan nan nan nan nan nan nan nan nan nan nan nan nan nan nan nan nan nan nan nan nan nan nan nan nan nan nan nan nan nan nan nan nan nan nan nan nan -0 -0 -0 -0 -0 -0 -0 -0 -0 -0 -0 -0 -0 -0 -0 -0 -0 -0 -0 -0 -0 -0 -0 -0 -0
nan nan nan nan nan nan nan nan nan nan nan nan nan nan nan nan nan nan nan nan nan nan nan nan nan nan nan nan nan nan nan nan nan nan nan nan nan nan nan nan nan nan nan nan nan nan nan nan nan nan nan nan nan nan nan nan nan nan nan -0 -0 -0 -0 -0 -0 -0 -0 -0 -0 -0 -0 -0 -0 -0 -0 -0 -0 -0 -0 -0 -0 -0 -0 -0 -0 -0
nan nan nan nan nan nan nan nan nan nan nan nan nan nan nan nan nan nan nan nan nan nan nan nan nan nan nan nan nan nan nan nan nan nan nan nan nan nan nan nan nan nan nan nan nan nan nan nan nan nan nan nan nan nan nan nan nan nan -0 -0 -0 -0 -0 -0 -0 -0 -0 -0 -0 -0 -0 -0 -0 -0 -0 -0 -0 -0 -0 -0 -0 -0 -0 -0 -0 -0
nan nan nan nan nan nan nan nan nan nan nan nan nan nan nan nan nan nan nan nan nan nan nan nan nan nan nan nan nan nan nan nan nan nan nan nan nan nan nan nan nan nan nan nan nan nan nan nan nan nan nan nan nan nan nan nan nan nan -0 -0 -0 -0 -0 -0 -0 -0 -0 -0 -0 -0 -0 -0 -0 -0 -0 -0 -0 -0 -0 -0 -0 -0 -0 -0 -0 -0
nan nan nan nan nan nan nan nan nan nan nan nan nan nan nan nan nan nan nan nan nan nan nan nan nan nan nan nan nan nan nan nan nan nan nan nan nan nan nan nan nan nan nan nan nan nan nan nan nan nan nan nan nan nan nan nan nan nan -0 -0 -0 -0 -0 -0 -0 -0 -0 -0 -0 -0 -0 -0 -0 -0 -0 -0 -0 -0 -0 -0 -0 -0 -0 -0 -0 -0
nan nan nan nan nan nan nan nan nan nan nan nan nan nan nan nan nan nan nan nan nan nan nan nan nan nan nan nan nan nan nan nan nan nan nan nan nan nan nan nan nan nan nan nan nan nan nan nan nan nan nan nan nan nan nan nan nan nan nan -0 -0 -0 -0 -0 -0 -0 -0 -0 -0 -0 -0 -0 -0 -0 -0 -0 -0 -0 -0 -0 -0 -0 -0 -0 -0 -0
nan nan nan nan nan nan nan nan nan nan nan nan nan nan nan nan nan nan nan nan nan nan nan nan nan nan nan nan nan nan nan nan nan nan nan nan nan nan nan nan nan nan nan nan nan nan nan nan nan nan nan nan nan nan nan nan nan nan nan -0 -0 -0 -0 -0 -0 -0 -0 -0 -0 -0 -0 -0 -0 -0 -0 -0 -0 -0 -0 -0 -0 -0 -0 -0 -0 -0
nan nan nan nan nan nan nan nan nan nan nan nan nan nan nan nan nan nan nan nan nan nan nan nan nan nan nan nan nan nan nan nan nan nan nan nan nan nan nan nan nan nan nan nan nan nan nan nan nan nan nan nan nan nan nan nan nan nan nan -0 -0 -0 -0 -0 -0 -0 -0 -0 -0 -0 -0 -0 -0 -0 -0 -0 -0 -0 -0 -0 -0 -0 -0 -0 -0 -0
nan nan nan nan nan nan nan nan nan nan nan nan nan nan nan nan nan nan nan nan nan nan nan nan nan nan nan nan nan nan nan nan nan nan nan nan nan nan nan nan nan nan nan nan nan nan nan nan nan nan nan nan nan nan nan nan nan nan -0 -0 -0 -0 -0 -0 -0 -0 -0 -0 -0 -0 -0 -0 -0 -0 -0 -0 -0 -0 -0 -0 -0 -0 -0 -0 -0 -0
nan nan nan nan nan nan nan nan nan nan nan nan nan nan nan nan nan nan nan nan nan nan nan nan nan nan nan nan nan nan nan nan nan nan nan nan nan nan nan nan nan nan nan nan nan nan nan nan nan nan nan nan nan nan nan nan nan nan -0 -0 -0 -0 -0 -0 -0 -0 -0 -0 -0 -0 -0 -0 -0 -0 -0 -0 -0 -0 -0 -0 -0 -0 -0 -0 -0 -0
nan nan nan nan nan nan nan nan nan nan nan nan nan nan nan nan nan nan nan nan nan nan nan nan nan nan nan nan nan nan nan nan nan nan nan nan nan nan nan nan nan nan nan nan nan nan nan nan nan nan nan nan nan nan nan nan nan nan nan -0 -0 -0 -0 -0 -0 -0 -0 -0 -0 -0 -0 -0 -0 -0 -0 -0 -0 -0 -0 -0 -0 -0 -0 -0 -0 -0
nan nan nan nan nan nan nan nan nan nan nan nan nan nan nan nan nan nan nan nan nan nan nan nan nan nan nan nan nan nan nan nan nan nan nan nan nan nan nan nan nan nan nan nan nan nan nan nan nan nan nan nan nan nan nan nan nan nan nan -0 -0 -0 -0 -0 -0 -0 -0 -0 -0 -0 -0 -0 -0 -0 -0 -0 -0 -0 -0 -0 -0 -0 -0 -0 -0 -0
nan nan nan nan nan nan nan nan nan nan nan nan nan nan nan nan nan nan nan nan nan nan nan nan nan nan nan nan nan nan nan nan nan nan nan nan nan nan nan nan nan nan nan nan nan nan nan nan nan nan nan nan nan nan nan nan nan nan nan -0 -0 -0 -0 -0 -0 -0 -0 -0 -0 -0 -0 -0 -0 -0 -0 -0 -0 -0 -0 -0 -0 -0 -0 -0 -0 -0
nan nan nan nan nan nan nan -0 -0 -0 nan nan nan nan nan nan nan nan nan nan nan nan nan nan nan -2 nan nan nan nan nan nan nan nan nan nan nan nan nan nan nan nan nan nan nan nan nan nan nan nan nan nan nan nan nan nan nan nan nan nan nan -0 -0 -0 -0 -0 -0 -0 -0 -0 -0 -0 -0 -0 -0 -0 -0 -0 -0 -0 -0 -0 -0 -0 -0 -0
-0 nan -0 -0 -0 -0 -0 -0 -0 -0 -0 -6 nan nan nan nan nan nan nan nan nan nan nan nan nan nan nan nan nan nan nan nan nan nan nan nan nan nan nan nan nan nan nan nan nan nan nan nan nan nan nan nan nan nan nan nan nan nan nan nan nan nan nan -0 -0 -0 -0 -0 -0 -0 -0 -0 -0 -0 -0 -0 -0 -0 -0 -0 -0 -0 -0 -0 -0 -0
nan nan nan -0 -0 -0 -0 -0 -0 -0 -0 -0 -0 -0 nan nan nan nan nan nan nan nan nan nan nan nan nan nan nan nan nan nan nan nan nan nan nan nan nan nan nan nan nan nan nan nan nan nan nan nan nan nan nan nan nan nan nan nan nan nan nan nan nan nan nan -0 -0 -0 -0 -0 -0 -0 -0 -0 -0 -0 -0 -0 -0 -0 -0 -0 -0 -0 -0 nan
nan nan nan nan nan -0 -0 nan nan nan -0 -0 -0 -0 -15 nan nan nan nan nan nan nan nan nan nan nan nan nan nan nan nan nan nan nan nan nan nan nan nan nan nan nan nan nan nan nan nan nan nan nan nan nan nan nan nan nan nan nan nan nan nan nan nan nan nan nan -0 -0 -0 -0 -0 -0 -0 -0 -0 -0 -0 -0 -0 -0 -0 -0 -0 -5 -5 nan
nan nan nan nan nan nan nan nan nan nan nan -0 -0 -0 nan nan nan nan nan nan nan nan nan nan nan nan nan nan nan nan nan nan nan nan nan nan nan nan nan nan nan nan nan nan nan nan nan nan nan nan nan nan nan nan nan nan nan nan nan nan nan nan nan nan nan nan nan -0 -0 -0 -0 -0 -0 -0 -0 -0 -0 -0 -0 -0 -0 -0 -2 nan nan nan
nan nan nan nan nan nan nan nan nan nan -0 nan nan nan nan nan nan nan nan nan nan nan nan nan nan nan nan nan nan nan nan nan nan nan nan nan nan nan nan nan nan nan nan nan nan nan nan nan nan nan nan nan nan nan nan nan nan nan nan nan nan nan nan nan nan nan -0 -0 -0 -0 -0 -0 -0 -0 -0 -0 -0 -0 -0 -0 -0 -0 -9 nan nan nan
nan nan nan nan nan nan nan nan nan nan nan nan nan nan nan nan nan nan nan nan nan nan nan nan nan nan nan nan nan nan nan nan nan nan nan nan nan nan nan nan nan nan nan -11 -11 nan nan nan nan nan nan nan nan nan nan nan nan nan nan nan nan nan nan nan nan nan nan -0 -0 -0 -0 -0 -0 -0 -0 -0 -0 -0 -0 -0 -0 -0 -11 nan nan nan
nan nan nan nan nan nan nan nan nan nan nan nan nan nan nan nan -0 -0 nan nan nan nan nan nan nan nan nan nan nan nan nan nan nan nan -10 nan nan nan nan nan nan nan nan nan nan nan nan nan nan nan nan nan nan nan nan nan nan nan nan nan nan nan nan nan nan nan nan nan nan nan -0 -0 -0 -0 -0 -0 -0 -0 -0 -0 -0 -0 -0 nan nan -13
nan nan nan nan nan nan nan nan nan nan nan nan nan nan nan nan nan nan nan nan nan nan nan nan nan nan nan nan nan nan nan nan nan nan -4 nan nan nan nan nan nan nan nan nan nan nan nan nan nan nan nan nan nan nan nan nan nan nan nan nan nan nan nan nan nan nan nan nan nan nan nan nan nan nan nan nan -0 -0 -0 -0 -0 -0 -0 -0 -0 -6
nan nan nan nan nan nan nan nan nan nan nan nan nan nan nan nan nan nan nan nan nan nan nan nan nan nan nan nan nan nan nan nan nan nan -1 nan nan nan nan nan nan nan nan nan nan nan nan nan nan -0 nan nan nan nan nan nan nan nan nan nan nan nan nan nan nan nan nan nan nan nan nan nan nan nan nan nan -0 -0 -0 -0 -0 -0 -0 -0 -0 -0
nan nan nan nan nan nan nan nan nan nan nan nan nan nan nan nan nan nan nan nan nan nan nan nan nan nan nan nan nan nan nan nan nan nan -0 -14 nan nan nan nan nan -6 nan -2 -2 nan nan nan nan -0 -0 nan nan nan nan nan nan nan nan nan nan nan nan nan nan nan nan nan nan nan nan nan nan nan nan nan -0 -0 -0 -0 -0 -0 -0 -0 -0 -0
nan nan nan nan nan nan nan nan nan nan nan nan nan nan nan nan nan nan nan nan nan nan nan nan nan nan nan nan nan nan nan nan nan nan -13 -20 nan nan nan -6 -6 -3 nan nan nan -3 -2 nan nan nan nan nan nan nan nan nan nan nan nan nan nan nan nan nan nan nan nan nan nan nan nan nan nan nan nan -2 -2 -2 -0 -0 -0 -0 -0 -0 -0 -0
nan nan nan nan nan nan nan nan nan nan nan nan nan nan nan nan nan nan nan nan nan nan nan nan nan nan nan -6 -21 -21 nan nan nan nan nan nan nan nan nan -7 -7 -4 -5 -6 -6 -5 -3 nan nan nan nan nan nan nan nan nan nan nan nan nan nan nan nan nan nan nan nan nan nan nan nan nan nan nan nan nan nan nan nan nan nan nan -0 -0 -0 -0
nan nan nan nan nan nan nan nan nan nan nan nan nan nan nan nan nan nan nan nan nan nan nan nan nan nan nan nan -15 -15 -6 nan nan nan nan nan nan nan nan nan nan nan -8 -10 -10 nan nan nan nan nan nan nan nan nan nan nan nan nan nan nan nan nan nan nan nan nan nan nan nan nan nan nan nan nan nan nan nan nan nan nan nan nan nan nan nan nan
nan nan nan nan nan nan nan nan nan nan nan nan nan nan nan nan nan nan nan nan nan nan nan nan nan nan nan nan nan nan nan nan nan nan nan nan nan nan nan nan nan nan nan -13 -13 -11 nan nan nan nan nan nan nan nan nan nan nan nan -0 nan nan nan nan nan nan nan nan nan nan nan nan nan nan nan nan nan nan nan nan nan nan nan nan nan nan nan
nan nan nan nan nan nan -13 nan nan nan nan nan nan nan nan nan nan nan nan nan nan nan nan nan nan nan nan nan nan nan nan nan nan nan nan nan nan nan nan nan nan nan nan nan nan nan nan nan nan nan nan nan nan nan nan nan nan -0 -0 nan nan nan nan nan nan nan nan nan nan nan nan nan nan nan nan nan nan nan nan nan nan nan nan nan nan nan
nan nan nan nan nan nan nan nan nan nan nan nan nan nan nan nan nan nan nan nan nan nan nan nan nan nan nan nan nan nan nan nan nan nan nan nan nan nan nan nan nan nan nan nan nan nan nan nan nan nan nan nan nan nan nan nan nan -2 -0 nan nan nan nan nan nan nan nan nan nan nan nan nan nan nan nan nan nan nan nan nan nan nan nan nan nan nan
nan nan nan nan nan nan -14 -10 nan nan nan nan nan nan nan nan nan nan nan nan nan nan nan nan nan nan nan nan nan nan nan nan nan nan nan nan nan nan nan nan nan nan nan nan nan nan nan nan nan nan nan nan nan nan nan nan nan nan nan nan nan nan nan nan nan nan nan nan nan nan nan nan nan nan nan nan nan nan nan nan nan nan nan nan nan nan
nan nan nan nan nan nan -13 nan nan nan nan nan nan nan nan nan nan nan nan nan nan nan nan nan nan nan nan nan nan nan nan nan nan nan nan nan nan nan nan nan nan nan nan nan nan nan nan nan nan nan nan nan nan nan nan nan nan nan nan nan nan nan nan nan nan nan nan nan nan nan nan nan nan nan nan nan nan nan nan nan nan nan nan nan nan nan
nan nan nan -8 -8 -11 nan nan nan nan nan nan nan nan nan nan nan nan nan nan nan nan nan nan nan nan nan nan nan nan nan nan nan nan nan nan nan nan nan nan nan nan nan nan nan nan nan nan nan nan nan nan nan nan nan nan nan nan nan -3 -3 -4 nan nan nan nan nan nan nan nan nan nan nan nan nan nan nan nan nan nan nan nan nan nan nan nan
nan nan nan nan nan nan nan nan nan nan nan nan nan nan nan nan nan nan nan nan nan nan nan nan nan nan -3 -3 nan nan nan nan nan nan nan nan nan nan nan nan nan nan nan nan nan nan nan nan nan nan nan nan nan nan nan nan nan nan nan -2 -2 nan nan nan nan nan nan nan nan nan nan nan nan nan nan nan nan nan nan nan nan nan nan nan nan nan
nan nan nan nan nan nan nan nan nan nan nan nan nan nan nan nan nan nan nan nan nan nan nan nan nan nan -4 -5 nan nan nan nan nan nan nan nan nan nan nan nan nan nan nan nan nan nan nan nan nan nan nan nan nan nan nan nan nan nan nan nan nan nan nan nan nan nan nan nan nan nan nan nan nan nan nan nan nan nan nan nan nan nan nan nan nan nan
nan nan nan nan nan nan nan nan nan nan nan nan nan nan nan nan nan nan nan nan nan nan -2 nan nan nan nan nan nan nan nan nan nan nan nan nan nan nan nan nan nan nan nan nan nan nan nan nan nan nan nan nan nan nan nan nan nan nan nan nan nan nan nan nan nan nan nan nan nan nan nan nan nan nan nan nan -11 -11 nan nan nan nan -26 -24 -24 -27
nan nan nan nan nan nan nan nan nan nan nan nan nan nan nan nan -0 -0 nan nan nan nan nan nan nan nan nan nan nan nan nan nan nan nan nan nan nan nan nan nan nan nan nan nan nan nan nan nan nan nan nan nan nan nan nan nan nan nan nan nan nan nan nan nan nan nan nan nan nan nan nan nan nan nan nan nan nan nan -9 nan nan nan nan nan nan nan
nan nan nan nan nan nan nan nan nan nan nan nan nan nan nan nan nan nan nan nan nan nan nan nan nan nan nan nan nan nan nan nan nan nan nan nan nan nan nan nan nan nan nan nan nan nan nan nan nan nan -10 nan nan nan nan nan nan nan nan nan nan nan nan nan nan nan nan nan nan nan nan nan nan nan nan -9 -6 -6 -7 nan nan nan nan nan nan nan
nan nan nan nan nan nan nan nan nan nan nan -1 -1 -1 nan nan nan nan nan nan nan nan nan nan nan nan nan nan nan nan nan nan nan nan nan nan nan nan nan nan nan nan nan nan nan nan nan nan nan nan nan -1 nan nan nan nan nan nan nan nan nan nan nan nan nan nan nan nan nan nan nan nan nan nan -17 -10 -7 -7 nan nan nan nan nan nan nan nan
Wind_Speed
1 2 2 3 2 2 2 2 2 2 2 2 2 2 3 3 2 2 3 3 3 3 2 2 2 1 1 2 2 3 3 4 4 5 5 6 7 9 9 10 11 11 11 11 11 11 12 12 12 12 12 12 12 12 12 12 12 12 12 12 12 12 12 12 12 13 13 12 12 12 12 12 11 11 11 11 11 11 11 11 11 11 11 12 12 12
2 2 2 3 3 2 2 3 2 2 2 1 1 2 2 2 2 1 1 2 2 2 2 2 2 2 2 3 3 4 4 4 5 6 7 8 9 9 10 10 10 10 10 10 11 11 11 11 12 12 12 12 12 12 11 11 11 11 11 11 11 11 12 12 12 12 12 12 12 12 12 12 11 11 11 11 11 11 11 11 11 11 12 12 12 12
2 2 2 2 3 2 2 2 2 2 2 1 1 2 2 2 2 1 1 2 2 2 2 2 2 3 3 4 5 5 5 6 6 7 8 9 9 9 9 9 9 9 9 10 10 11 11 11 11 11 11 11 11 11 10 10 10 10 10 10 11 11 11 11 11 11 11 11 11 11 11 11 11 11 11 11 11 11 11 11 11 11 11 11 12 12
1 1 2 2 2 2 2 2 1 1 2 2 2 2 2 2 1 1 2 2 2 2 2 2 2 3 3 3 5 6 7 7 8 8 8 8 7 7 7 8 9 9 10 10 10 10 11 11 11 11 11 11 10 10 10 10 9 9 9 10 10 10 10 10 10 10 10 11 11 11 11 11 11 11 11 11 11 11 11 11 11 11 11 11 12 12
1 1 1 1 1 2 2 1 1 1 2 2 2 2 2 1 1 1 1 1 1 2 2 2 2 3 2 3 4 6 8 8 8 7 6 6 6 7 8 8 9 10 10 10 10 10 10 10 10 10 10 10 10 9 9 9 9 8 8 9 9 9 9 9 10 10 10 10 10 10 10 10 10 11 11 11 11 11 11 11 11 11 11 11 12 12
1 1 1 1 1 1 1 1 1 1 1 1 1 1 1 1 1 1 1 1 1 2 2 2 2 2 2 3 4 6 8 7 6 5 5 6 6 7 8 9 9 10 10 10 10 10 10 10 10 10 9 9 9 9 8 8 8 8 8 8 9 9 9 9 10 10 10 11 11 11 11 11 11 11 11 11 11 11 11 11 11 11 11 11 12 12
1 1 1 1 1 1 1 1 1 1 1 1 1 0 0 0 1 1 1 1 1 1 2 2 2 2 2 2 4 5 5 4 4 4 5 6 7 8 8 9 9 9 9 10 10 9 9 9 9 9 9 8 8 8 7 7 8 8 8 9 9 9 10 10 10 11 11 11 11 11 11 11 11 11 11 11 11 11 11 11 11 11 11 12 12 12
1 1 1 1 1 1 1 0 0 0 1 1 1 0 0 0 0 0 0 0 0 1 1 1 1 0 0 1 2 2 2 2 3 4 4 5 6 7 8 8 9 9 9 9 9 9 9 9 9 9 9 9 8 8 8 8 8 9 9 9 9 10 10 11 11 11 11 11 12 11 11 11 11 11 11 10 10 10 11 11 11 11 11 12 12 12
1 1 1 1 1 1 1 0 1 1 0 1 1 1 0 0 0 1 1 1 1 1 1 1 1 1 1 1 1 1 1 1 2 2 3 3 4 5 6 7 8 9 9 9 9 9 10 10 10 10 10 9 9 9 9 9 9 9 9 10 10 10 11 11 11 11 12 12 12 11 11 11 11 11 10 10 10 10 10 11 11 11 11 12 12 12
1 1 1 1 1 0 1 0 1 1 1 1 1 1 1 1 0 0 1 1 2 2 1 1 1 1 1 2 2 2 2 2 3 4 4 4 5 5 6 7 7 8 9 9 9 10 10 10 10 10 10 9 9 9 9 9 9 9 10 10 10 10 11 11 11 11 12 11 11 11 11 11 11 11 10 10 10 10 10 11 11 11 11 12 12 13
1 1 1 1 1 0 0 0 1 1 1 1 1 1 1 1 1 1 0 1 2 2 2 2 2 1 1 2 2 3 3 3 4 5 6 6 6 6 7 7 7 8 9 9 9 9 10 10 10 9 9 9 9 9 9 9 9 9 9 10 10 10 11 11 11 11 11 11 11 11 11 11 11 11 11 11 11 11 11 11 11 11 12 12 13 13
1 1 1 1 1 1 1 1 1 1 1 1 1 1 1 1 1 1 1 0 1 2 2 2 2 1 1 1 2 3 2 2 2 3 4 4 4 4 4 5 5 6 7 7 8 8 9 9 9 9 9 8 9 9 9 9 9 9 9 10 10 10 11 11 11 11 11 11 11 11 11 11 11 11 11 11 11 11 11 11 11 12 12 13 13 14
1 1 1 1 1 1 1 1 1 1 1 1 0 0 1 1 1 1 2 1 0 1 2 2 2 2 1 1 1 2 2 2 2 2 2 2 2 2 2 2 3 3 3 4 4 5 7 8 9 8 9 9 9 9 9 9 9 9 10 10 10 10 11 11 11 11 11 11 11 11 12 12 11 11 11 11 11 11 12 12 12 12 13 13 14 14
1 1 1 1 1 1 1 1 1 1 1 1 0 1 1 1 1 1 2 1 1 1 1 1 2 2 2 1 1 1 1 1 2 2 2 2 2 1 1 2 2 2 2 2 3 4 6 6 6 6 8 9 9 9 10 9 10 10 10 10 10 10 11 11 11 11 11 11 11 11 12 12 12 11 11 12 12 12 12 12 12 13 13 13 14 14
1 1 1 1 1 1 1 1 1 0 1 1 1 1 1 1 1 2 2 1 1 2 2 2 2 3 2 2 1 1 1 1 1 2 2 3 2 1 1 1 2 2 1 2 3 4 5 4 4 4 6 7 8 8 9 9 9 10 10 10 10 10 11 11 11 11 11 11 11 12 12 12 12 12 12 12 12 12 12 13 13 13 13 14 14 14
0 1 1 0 1 1 1 0 0 0 1 1 1 1 1 1 1 1 2 1 1 2 3 3 2 3 3 2 1 1 1 1 1 1 2 3 2 1 1 1 1 2 2 2 2 3 3 3 3 3 4 7 9 10 11 10 10 10 10 11 11 11 11 11 11 11 11 11 12 12 12 12 12 12 12 12 13 13 13 13 13 13 14 14 14 15
0 1 1 0 1 1 1 1 1 1 1 1 1 1 1 1 1 1 1 1 1 2 2 2 1 1 3 2 2 1 0 1 1 1 2 3 3 1 2 1 1 2 2 2 2 3 3 3 3 4 4 7 9 11 11 11 11 11 11 11 11 11 11 11 11 11 11 11 12 12 12 12 12 13 13 13 13 13 13 13 14 14 14 14 15 15
0 1 1 0 0 1 1 1 1 1 0 1 1 1 1 1 1 1 1 1 1 1 1 1 1 1 1 2 2 1 0 1 1 2 3 4 3 2 1 1 1 2 2 2 2 3 3 3 3 4 5 8 10 11 12 12 12 12 12 11 11 11 11 11 11 11 11 11 11 12 12 12 12 12 13 13 13 13 13 13 13 14 14 14 14 15
0 0 1 0 0 1 1 1 1 0 0 0 0 1 1 1 1 1 1 1 2 2 2 1 1 1 2 2 3 2 1 0 1 2 3 4 3 2 0 0 1 1 2 2 2 3 3 3 4 6 8 10 12 12 13 13 12 12 12 12 11 11 11 11 11 11 11 11 11 11 11 12 12 12 12 12 13 13 13 13 13 14 14 14 15 15
1 1 0 0 0 0 1 1 1 1 1 1 2 2 1 1 1 1 1 1 1 2 2 2 1 2 2 3 3 2 0 1 1 1 2 3 3 2 1 0 0 1 2 2 3 2 2 3 4 6 9 10 12 13 13 13 13 12 12 12 11 11 11 10 10 10 10 10 10 11 11 12 12 12 12 13 13 13 13 14 14 14 14 15 15 15
1 1 1 1 1 1 1 1 1 2 2 2 2 2 1 1 1 0 0 0 1 1 1 1 2 2 2 2 3 2 0 1 1 1 2 2 3 2 1 1 1 1 2 3 3 3 2 3 3 4 6 10 12 13 14 13 13 12 12 11 11 10 10 10 10 10 10 10 10 11 11 12 12 12 13 13 13 13 14 14 14 14 15 15 15 15
1 0 2 2 2 1 1 2 2 2 3 3 2 1 1 1 0 1 1 1 1 1 1 2 3 3 2 2 3 2 1 1 1 0 1 2 3 3 1 1 1 0 2 3 3 2 2 2 3 4 7 11 13 14 14 13 12 12 11 11 10 10 9 9 9 9 10 10 11 11 12 12 13 13 13 13 13 14 14 14 14 14 15 15 15 15
1 0 1 2 2 2 2 2 2 2 3 3 3 2 2 2 2 2 2 2 2 2 3 3 2 2 1 2 2 2 0 1 2 2 1 1 2 3 2 1 1 1 2 2 3 2 2 3 4 5 8 12 13 13 13 12 11 11 10 10 9 9 8 9 9 10 10 11 12 12 13 13 13 13 13 13 13 13 14 14 14 14 14 15 15 15
1 1 1 2 3 3 2 2 2 2 2 2 2 2 2 2 2 2 2 2 2 2 2 1 1 2 2 2 2 2 1 1 2 2 1 1 2 3 2 1 1 2 3 2 2 2 3 4 4 5 6 10 12 12 12 11 10 9 9 8 8 8 8 9 10 11 12 12 13 13 13 13 13 13 13 13 13 13 13 14 14 14 14 14 15 15
1 1 2 2 3 3 3 3 3 2 2 2 2 2 2 1 1 1 1 1 1 1 1 2 3 3 2 2 2 2 2 1 1 2 1 1 2 3 2 1 1 2 3 3 2 2 3 4 5 4 4 6 9 10 10 9 8 8 7 7 7 8 9 10 11 12 13 13 13 13 13 13 13 13 13 13 13 13 13 14 14 14 14 15 15 15
1 1 2 3 4 6 7 7 7 6 4 3 2 2 2 1 1 1 0 0 0 0 1 2 3 3 3 2 2 2 2 1 1 2 2 1 1 2 2 1 0 1 3 3 3 3 4 5 5 4 3 4 5 7 8 7 7 7 7 7 9 10 11 12 13 13 14 14 13 13 13 13 13 13 13 13 13 13 14 14 14 14 14 15 14 14
6 7 8 8 9 10 10 11 11 11 11 8 5 3 2 2 1 0 1 1 1 1 2 3 3 4 3 2 2 2 2 1 0 1 2 1 1 2 2 1 1 2 3 4 4 4 5 5 4 3 3 2 3 5 6 7 7 8 8 9 11 12 13 13 14 14 14 14 13 13 13 13 13 13 13 13 13 13 14 14 14 14 14 13 12 11
7 8 9 9 10 10 10 10 10 10 11 11 10 7 1 2 2 1 2 2 1 1 2 3 3 4 3 2 2 2 2 1 1 1 2 2 0 2 2 2 1 2 3 4 4 4 5 4 4 3 3 3 3 4 5 7 8 9 11 12 13 14 14 14 14 14 14 14 14 14 13 13 13 13 14 14 14 14 14 14 14 14 13 11 7 5
6 7 7 8 9 9 9 9 9 9 10 9 10 8 4 1 2 2 3 2 1 1 2 3 3 3 3 3 3 2 2 2 1 1 2 1 0 2 2 2 2 2 3 4 4 3 2 2 2 2 2 3 3 3 4 6 8 9 10 12 13 14 14 14 14 14 14 14 14 14 14 14 14 14 14 14 14 14 14 14 14 12 9 7 5 4
5 5 5 6 7 7 7 6 7 8 8 8 8 6 4 0 2 3 2 1 1 1 2 3 3 3 3 3 3 2 2 2 1 1 2 1 1 2 2 2 2 2 2 3 3 3 2 2 2 2 2 3 3 3 3 4 5 6 7 9 10 11 13 13 14 14 14 14 14 14 14 14 14 14 14 14 14 14 14 14 13 10 6 5 4 4
3 3 3 4 4 4 4 4 5 5 6 6 6 5 3 1 1 2 2 2 2 2 2 2 2 2 2 2 2 2 2 2 2 2 2 1 1 2 1 2 2 1 1 2 2 3 3 3 2 2 2 3 3 4 4 4 4 4 4 5 6 7 10 12 12 13 13 13 14 14 15 15 15 15 15 15 15 15 15 15 13 10 6 4 4 4
2 2 2 3 3 3 3 3 3 3 4 4 3 3 2 1 1 1 2 2 2 2 2 2 2 2 2 2 2 2 2 2 2 3 2 1 1 1 1 1 2 1 0 1 1 2 2 3 3 3 3 3 4 4 4 4 4 4 4 4 4 5 8 10 10 11 11 12 13 14 14 15 15 15 15 15 15 15 15 15 13 10 6 4 4 5
2 2 2 3 3 3 3 3 3 3 3 2 2 2 2 2 1 0 1 1 2 2 2 2 1 2 2 2 3 3 3 2 2 2 3 2 1 1 1 2 2 2 2 1 1 2 3 3 4 4 4 3 3 3 3 4 4 4 4 3 3 4 6 7 7 7 8 9 10 11 13 14 14 14 15 15 15 15 15 15 14 12 8 5 5 5
2 2 2 3 3 3 3 3 3 3 3 2 2 2 2 2 2 1 1 0 1 2 2 2 1 1 2 2 3 3 3 2 3 4 4 2 2 2 2 2 2 2 2 2 2 2 3 4 4 4 4 4 3 3 3 3 4 3 3 3 3 3 4 4 5 5 6 6 6 7 8 9 11 12 13 14 14 14 15 15 14 14 12 9 7 6
2 2 3 3 3 3 3 3 3 3 3 2 2 2 2 2 2 2 1 1 1 1 2 2 2 2 2 2 3 3 3 2 3 4 5 3 2 2 2 2 2 2 2 3 3 3 3 4 5 5 5 4 3 3 2 3 3 2 2 3 3 3 4 4 4 4 5 5 5 5 5 5 6 7 9 11 12 13 14 15 15 15 15 13 11 8
2 2 3 2 2 3 3 3 3 3 3 2 2 2 2 2 2 2 2 2 2 2 2 2 2 2 2 2 3 3 4 3 3 4 5 3 2 2 3 2 2 2 3 3 3 3 3 4 5 6 6 6 4 3 2 2 2 2 2 3 3 4 4 4 4 4 4 4 4 4 4 4 4 5 6 10 12 13 14 15 15 15 15 15 14 13
2 2 2 2 2 2 2 2 2 2 2 2 2 2 2 2 2 2 2 2 2 2 3 3 3 3 3 3 3 3 4 3 3 4 5 4 3 3 3 3 3 3 3 3 4 4 4 5 5 6 6 5 4 3 3 2 2 2 3 3 3 4 5 5 5 4 4 4 5 4 4 4 5 5 6 9 11 12 13 14 14 14 15 16 16 15
2 2 2 2 1 1 1 1 1 2 2 2 2 2 2 2 2 3 3 3 3 3 3 3 3 4 5 5 5 5 4 4 4 5 5 4 4 4 4 4 4 4 3 3 4 4 4 5 5 6 5 5 5 5 5 4 4 4 4 4 4 4 4 4 4 3 3 4 5 5 6 5 5 5 5 6 6 6 7 7 9 11 13 13 14 15
1 2 2 2 2 2 1 1 2 2 2 2 2 2 2 2 3 3 3 3 3 3 3 3 3 3 4 5 6 7 7 6 6 6 6 5 4 4 4 4 4 4 4 4 4 4 4 5 5 5 5 5 6 6 5 5 5 5 5 5 4 3 3 3 3 3 3 4 5 5 5 5 4 4 4 4 4 4 4 5 6 7 7 6 8 11
2 2 3 2 2 1 1 2 2 2 1 1 2 2 2 2 3 2 2 2 2 3 3 3 3 3 3 4 5 6 6 6 6 6 5 4 4 4 4 4 4 4 4 4 4 4 5 5 5 6 6 6 6 6 6 5 6 7 8 6 5 3 3 3 3 3 3 3 3 4 4 4 4 4 4 4 4 4 4 4 5 5 5 4 4 6
2 2 3 2 2 2 2 2 1 1 0 1 1 2 2 2 2 2 2 2 2 3 2 2 2 2 3 3 4 4 5 6 6 6 5 5 5 5 5 5 4 4 4 4 4 5 5 5 6 6 6 6 7 8 8 7 8 9 9 7 6 6 6 5 4 3 3 3 3 3 4 5 5 5 5 5 5 4 4 4 5 5 5 4 4 4
3 3 3 2 2 2 1 1 0 1 1 1 1 2 2 2 2 2 2 2 2 2 2 2 2 2 3 3 4 4 4 5 6 6 6 6 6 6 5 5 4 4 4 4 5 5 6 6 6 6 6 6 6 7 7 8 8 8 8 8 8 8 8 7 4 2 2 3 3 3 5 5 5 5 5 5 5 5 5 5 6 7 6 5 4 4
3 3 2 2 2 2 2 1 1 1 1 1 2 2 2 2 2 2 2 2 2 2 2 2 2 2 3 3 3 3 4 4 4 5 5 5 6 6 6 6 5 5 4 4 5 5 6 6 6 6 6 6 6 7 8 8 8 8 7 7 7 7 6 5 3 3 3 4 4 4 4 5 5 5 5 5 5 5 5 7 8 9 8 6 5 5
3 2 2 2 2 1 1 1 1 1 2 2 2 3 3 3 3 3 3 2 3 3 3 3 2 3 3 4 3 3 3 3 3 4 4 5 6 6 6 6 6 6 5 4 4 4 5 6 6 6 5 6 6 7 8 8 8 8 7 7 7 7 6 6 6 6 6 6 6 5 4 5 5 5 5 6 6 5 4 5 5 6 7 6 6 6
2 2 2 2 1 1 0 1 1 1 2 2 3 3 3 3 3 3 2 2 3 3 3 3 2 3 3 3 3 3 3 3 3 3 3 5 6 7 6 6 5 5 5 5 5 5 5 5 5 5 5 5 6 7 8 8 8 8 8 8 8 8 8 7 7 7 7 7 6 6 5 5 5 6 7 7 6 6 5 5 5 6 6 6 6 6
2 2 2 2 1 1 1 1 1 1 2 2 3 3 3 3 3 2 3 3 3 3 3 2 2 3 4 4 4 4 3 3 3 3 2 3 4 4 4 5 5 5 5 5 5 6 5 5 5 5 5 6 7 8 8 8 8 8 8 8 8 7 7 7 7 7 7 7 7 6 5 5 5 6 7 7 6 6 6 5 6 6 6 6 6 7
2 2 2 1 1 1 1 1 2 2 2 3 3 3 3 3 3 3 3 3 3 3 3 3 3 3 4 4 4 4 4 4 4 3 3 3 3 3 3 4 5 5 5 5 6 6 7 7 6 6 6 7 7 8 8 7 7 8 8 7 7 7 7 6 6 6 7 7 7 6 4 5 5 6 8 7 7 7 6 6 5 6 6 6 6 6
2 2 1 1 1 1 2 2 2 2 2 3 3 3 3 3 3 3 3 3 3 3 3 3 3 3 4 4 4 4 5 5 5 4 3 3 3 3 3 3 4 4 5 6 6 7 7 8 8 8 7 7 8 8 8 8 7 7 7 7 7 7 7 7 7 6 6 6 6 5 4 5 6 7 7 8 8 7 7 6 6 5 5 5 6 6
1 1 1 2 2 2 2 2 2 2 3 3 3 3 3 4 5 5 3 3 3 3 3 4 4 4 4 4 4 4 5 5 5 4 3 3 2 3 3 3 3 3 4 5 5 6 6 8 9 10 9 9 9 9 9 8 8 7 7 7 7 7 7 7 7 6 6 6 6 5 5 5 5 6 6 7 8 9 8 8 7 6 5 5 5 5
2 2 2 2 2 2 2 2 3 3 4 4 4 3 3 3 3 3 3 3 3 3 4 4 5 5 5 5 5 5 5 5 4 4 3 3 3 3 3 3 3 3 3 3 3 4 4 5 6 8 11 12 11 10 9 8 7 7 6 6 6 6 7 7 6 6 6 6 6 6 5 5 5 5 5 7 9 10 9 8 8 7 6 5 5 6
2 2 2 2 2 3 3 3 3 4 4 4 4 4 3 2 2 2 3 3 3 4 4 4 4 5 5 5 5 5 5 5 5 5 4 3 3 3 3 3 3 3 3 3 3 3 3 3 4 5 7 12 13 12 8 7 6 6 6 5 5 5 5 6 6 6 6 7 6 5 5 5 5 5 5 6 8 9 9 9 8 7 6 5 5 6
Wind_Direction
27 28 27 35 50 68 59 50 58 69 62 50 60 75 85 82 72 62 70 84 91 96 102 110 120 136 191 232 243 248 253 258 263 268 271 272 274 275 275 274 275 277 279 280 281 282 281 280 279 278 277 276 276 276 277 278 278 279 280 281 282 283 283 284 284 285 286 287 289 291 293 295 297 299 300 300 300 299 298 297 296 295 294 293 292 291
28 32 31 31 40 58 62 40 42 57 72 57 56 68 81 86 86 83 80 104 117 129 141 149 161 177 199 223 237 247 251 255 260 263 264 264 264 266 268 269 272 276 281 283 285 285 286 286 285 283 282 282 281 280 280 280 280 280 280 280 280 281 281 282 283 284 285 287 289 290 292 294 295 295 295 295 293 292 291 290 289 288 287 287 287 287
28 35 36 31 37 49 62 46 46 60 85 92 93 93 95 104 112 124 135 145 156 167 177 179 187 193 204 221 235 244 248 251 254 257 260 261 264 269 275 279 284 289 292 293 293 292 291 289 287 286 284 283 283 282 281 281 280 279 278 278 278 278 278 279 280 281 282 283 285 286 287 288 288 288 288 287 286 285 285 284 285 286 286 287 288 289
31 42 43 40 44 49 61 65 70 82 101 113 118 120 122 132 141 151 159 168 178 188 194 197 201 205 213 227 240 248 252 255 258 262 266 273 281 290 297 303 304 304 304 301 298 295 293 290 288 286 284 283 282 281 281 280 279 279 279 279 279 280 280 280 280 281 281 282 282 282 282 282 282 282 283 282 282 283 284 284 286 288 289 289 290 290
37 46 49 48 52 58 65 80 94 104 106 113 123 132 145 155 160 159 159 171 185 199 209 212 214 219 225 235 249 255 258 262 266 273 284 297 308 315 318 317 315 312 308 304 300 296 293 290 287 285 284 282 281 281 281 281 282 283 284 286 287 288 289 289 289 289 288 287 286 284 283 282 282 282 282 283 284 285 286 286 287 288 288 288 288 288
47 50 52 50 57 69 86 104 117 116 103 109 121 137 159 170 169 164 171 184 201 215 224 225 225 227 232 241 254 261 264 271 281 299 319 328 331 330 327 322 318 314 310 306 302 299 296 293 291 290 289 287 286 286 287 288 291 293 296 297 298 299 300 298 296 295 293 291 290 288 286 285 284 283 283 283 284 285 285 286 286 286 286 286 286 286
61 56 53 52 60 70 86 107 130 134 116 113 116 124 156 170 178 186 195 206 220 228 235 235 233 234 241 255 265 271 278 297 326 350 355 350 344 338 331 326 321 318 314 311 308 307 306 305 305 304 303 301 300 299 301 302 303 304 305 304 304 303 300 298 296 293 292 290 289 288 286 285 284 283 282 282 282 282 283 284 284 284 284 284 285 285
86 67 45 50 57 65 67 68 106 129 125 127 127 133 250 261 264 259 280 307 298 275 260 259 265 291 327 315 299 295 299 341 9 15 8 0 352 343 336 330 327 323 320 318 317 317 318 318 318 317 316 314 313 312 312 310 310 309 307 305 302 299 296 293 291 289 288 287 286 285 284 283 282 280 280 280 280 280 281 282 282 283 283 284 284 285
97 85 31 26 50 77 76 3 335 339 48 123 136 147 177 264 317 337 1 6 6 1 349 351 357 2 358 352 335 324 325 15 27 20 12 8 357 347 341 338 334 329 324 322 322 322 323 323 321 319 318 316 315 314 313 311 309 307 304 300 297 293 290 288 286 285 284 283 282 281 281 280 279 279 278 278 278 278 278 278 279 280 281 283 284 284
71 68 27 358 11 71 107 320 316 323 351 70 111 130 144 162 168 348 355 352 357 1 1 12 15 4 346 341 343 348 355 7 7 7 9 3 355 349 345 343 337 330 324 323 323 323 323 322 319 316 315 313 312 310 310 308 306 303 299 295 291 289 286 284 283 281 280 280 279 279 278 278 277 277 276 276 276 276 275 276 277 279 280 281 282 283
35 28 24 352 348 2 95 282 295 317 15 55 66 71 86 107 131 150 204 319 340 351 352 355 5 6 348 340 345 355 8 6 2 0 2 357 353 349 345 339 333 327 323 323 323 323 322 320 317 315 314 313 311 310 308 306 302 299 294 290 287 285 282 281 280 278 278 278 277 277 277 277 276 276 276 276 276 277 277 278 279 279 280 280 281 281
27 13 15 2 355 352 358 338 334 2 48 68 57 16 1 9 38 125 156 213 335 343 336 334 336 344 341 337 342 351 6 8 358 350 348 348 349 347 342 335 327 323 322 321 321 320 320 319 319 318 317 316 314 312 309 306 301 296 292 288 284 282 280 278 277 277 277 277 277 277 277 277 277 277 278 279 280 281 281 281 281 281 281 280 280 281
13 2 11 11 7 3 1 359 5 15 31 55 73 261 294 325 358 68 110 105 32 325 314 324 323 321 320 347 351 352 4 3 351 341 338 333 332 334 334 322 313 310 314 317 314 312 313 317 318 319 318 317 315 312 310 306 300 295 290 286 282 280 279 278 278 278 278 279 279 279 279 279 280 280 281 282 283 284 284 283 283 283 283 282 283 283
4 6 19 11 3 357 1 9 14 12 8 8 310 238 248 300 5 52 79 56 344 309 316 341 328 317 322 347 352 351 20 11 357 346 337 314 298 288 297 294 292 291 300 308 302 299 301 311 315 315 315 313 312 310 307 303 299 294 289 286 283 281 281 280 280 281 281 282 282 282 282 282 282 282 283 283 283 283 283 283 283 283 284 284 284 284
13 25 34 6 343 334 344 1 11 349 301 287 281 283 307 353 24 48 73 37 336 331 1 7 348 326 319 327 325 326 53 52 24 351 329 303 281 254 219 278 286 288 293 298 292 292 298 307 307 304 304 305 304 301 300 298 295 291 290 288 286 285 284 284 284 284 284 284 285 285 285 285 285 284 284 283 283 282 282 283 283 283 283 282 282 282
55 80 80 324 299 298 297 292 264 258 265 276 293 337 32 26 30 50 85 78 1 2 27 25 3 334 317 313 310 321 65 66 42 344 317 298 283 245 162 229 285 289 288 286 284 287 296 301 296 291 293 295 296 297 298 297 295 293 292 291 289 288 287 287 286 286 285 286 286 287 287 287 287 286 285 284 284 283 282 282 281 281 280 279 278 277
102 104 114 103 295 288 273 255 233 233 256 289 330 21 62 68 72 85 98 102 65 46 49 61 42 329 307 312 314 319 66 53 15 326 308 296 285 253 159 179 251 277 283 278 277 279 289 293 293 291 289 290 293 296 298 298 297 295 294 292 291 289 289 288 287 287 287 287 288 288 288 288 287 286 285 284 283 282 282 281 280 279 278 277 276 276
83 116 118 102 286 280 278 282 275 267 276 339 10 26 49 59 79 95 104 108 98 87 80 102 146 191 243 289 289 278 141 29 345 324 308 296 287 271 173 175 215 253 271 273 272 271 274 278 281 283 286 293 296 298 299 299 297 295 294 292 291 289 288 288 288 288 288 289 289 289 289 288 287 285 284 283 282 281 280 280 279 279 279 279 279 279
32 80 98 123 257 282 308 305 287 266 200 166 124 86 48 16 28 60 87 113 126 134 142 159 198 210 201 243 259 262 186 94 346 319 303 293 288 283 285 164 207 246 265 266 266 267 269 271 277 283 289 295 297 298 298 297 296 294 292 291 289 288 288 288 288 289 289 290 290 290 290 289 288 287 285 284 283 282 282 281 281 281 281 282 282 283
43 27 42 168 173 349 338 308 278 233 191 173 140 114 92 38 28 36 58 106 132 140 144 160 204 228 223 242 260 271 220 80 33 320 289 284 282 286 325 51 59 276 282 272 268 266 269 275 281 287 290 293 295 296 295 295 293 292 290 289 288 287 287 288 288 289 290 291 292 293 293 292 292 291 290 289 288 287 285 284 283 283 283 283 283 283
67 15 260 181 149 116 318 286 258 222 182 150 118 97 94 68 20 349 257 154 123 114 117 175 219 226 221 237 255 265 230 87 60 323 290 289 288 291 322 50 56 334 289 278 273 271 271 276 277 279 284 289 291 292 293 292 291 290 288 287 286 286 287 288 289 291 293 295 296 297 297 296 296 295 294 292 291 290 288 287 286 285 284 284 283 283
95 246 241 194 182 191 241 247 236 209 169 144 128 122 151 153 211 247 223 184 174 179 196 217 223 223 215 236 253 258 178 126 132 171 305 306 297 292 308 39 59 329 278 274 274 274 274 273 271 274 279 286 289 291 291 290 289 288 286 286 286 287 288 290 292 295 298 299 300 300 300 298 297 296 295 293 292 291 290 288 287 286 285 284 283 283
110 204 230 205 207 218 240 245 237 211 176 168 172 179 179 176 186 198 194 184 187 197 206 218 230 242 249 262 274 282 280 139 133 126 103 290 284 284 297 2 20 295 271 271 276 282 284 277 272 274 280 286 288 290 290 289 288 287 286 286 287 289 291 295 298 301 303 303 302 301 300 298 297 296 295 293 292 291 290 289 288 287 286 285 285 284
141 238 243 221 219 225 240 250 247 227 196 196 196 193 182 177 179 179 175 174 175 182 199 235 283 307 307 296 299 303 314 93 110 113 116 250 268 275 291 333 326 297 279 273 275 285 291 284 276 272 275 283 286 289 291 291 290 288 288 290 293 296 299 303 304 306 305 304 303 302 300 298 297 296 295 294 292 292 291 290 289 288 287 287 286 286
176 219 244 237 238 243 250 257 256 243 208 207 210 211 194 183 172 160 143 136 144 169 266 296 301 304 307 321 316 307 303 8 103 118 130 245 271 279 286 305 307 294 288 285 284 288 291 288 282 276 271 279 286 292 296 296 296 296 296 299 303 306 308 308 308 307 306 305 303 301 300 298 297 296 295 294 293 293 292 291 291 290 289 289 288 288
27 335 312 306 304 305 308 312 312 307 288 253 223 207 186 156 114 77 62 83 226 292 304 301 297 295 296 305 302 293 286 297 129 134 140 200 280 289 289 293 292 293 296 296 295 292 289 287 285 281 276 282 295 302 306 308 310 311 313 313 313 313 312 310 309 307 306 304 303 301 300 298 297 296 296 295 295 294 294 293 293 292 292 291 291 290
5 354 345 339 335 332 332 333 328 320 313 303 287 253 175 132 104 68 262 240 235 272 296 293 294 293 294 289 280 275 274 273 198 148 136 130 272 286 286 296 308 307 304 302 298 291 286 284 284 286 291 298 311 316 319 323 325 325 324 320 317 314 312 310 309 307 305 304 303 301 300 299 298 297 297 296 296 295 295 295 294 294 294 293 293 293
8 359 352 346 342 339 339 337 331 324 316 308 301 293 267 144 144 200 240 229 230 261 280 282 286 291 295 293 285 278 272 266 234 157 127 113 185 268 275 293 311 315 312 307 300 289 283 281 284 292 303 307 309 315 322 329 331 329 324 319 316 313 311 309 308 306 305 304 302 301 299 299 298 297 297 297 297 296 296 296 295 295 295 294 294 295
9 1 354 347 344 343 345 342 335 327 320 311 305 304 321 161 175 206 231 221 220 245 263 269 276 283 291 297 300 299 289 275 245 161 119 109 225 264 274 301 317 322 323 314 309 304 295 287 287 295 301 306 309 314 317 327 329 326 321 315 312 310 308 306 305 305 303 302 301 300 299 298 298 298 297 297 297 297 296 296 296 296 295 293 291 289
359 356 350 344 344 344 345 339 332 328 326 322 319 320 342 15 184 197 207 173 167 204 242 255 265 274 286 299 307 309 300 282 254 174 123 114 260 274 284 308 318 328 339 330 326 321 318 306 296 288 290 308 315 318 316 320 319 315 311 308 305 303 302 301 301 301 301 300 300 299 299 298 298 298 297 297 297 297 296 296 296 295 293 291 288 286
338 338 330 326 329 333 335 331 328 327 329 332 336 342 359 33 158 173 162 143 148 169 202 227 245 258 274 292 300 300 291 277 241 185 140 146 265 277 290 308 311 315 353 351 337 325 319 311 303 299 310 321 321 317 311 304 299 295 291 294 294 294 293 295 296 298 299 299 299 299 298 298 297 297 296 296 296 296 296 296 296 296 293 290 285 282
306 308 303 305 312 319 326 328 328 328 329 336 342 350 358 15 82 138 138 140 143 152 170 196 224 244 253 262 265 268 273 272 227 199 187 226 272 282 291 307 309 307 280 342 320 303 302 300 301 309 322 317 310 301 293 287 282 279 276 278 278 281 284 288 291 295 297 298 297 297 296 296 295 295 295 295 295 295 295 295 295 294 292 285 279 274
303 302 300 309 316 322 325 329 331 331 331 336 342 348 351 357 6 50 134 143 145 146 155 177 216 245 254 255 258 262 268 275 268 264 276 287 296 299 305 310 311 310 305 294 269 259 266 280 292 301 303 296 288 279 275 272 268 265 263 263 265 271 277 281 286 290 291 293 293 293 293 293 293 293 293 293 293 293 294 293 293 291 287 280 274 272
323 320 321 328 330 331 330 332 333 334 337 340 344 349 351 351 350 347 335 239 168 161 163 172 193 232 260 266 268 269 269 274 288 298 307 311 307 301 307 306 306 305 306 293 276 265 265 274 284 292 294 289 278 264 261 261 260 258 252 247 252 261 270 274 278 280 281 283 285 285 286 287 288 288 289 290 290 290 291 291 290 289 287 284 281 280
339 332 331 336 337 335 333 335 337 340 341 339 340 341 343 342 336 326 314 296 263 219 192 187 191 205 229 255 269 275 276 278 293 302 304 303 300 299 299 293 293 295 295 288 284 280 278 280 285 290 295 296 290 274 255 251 253 257 254 242 244 251 259 262 266 271 274 276 275 274 273 274 277 280 282 283 284 285 287 288 289 289 290 289 289 289
346 332 325 329 330 329 325 328 333 335 333 324 320 321 324 321 313 302 290 280 272 262 252 237 221 212 211 229 252 267 277 280 287 290 289 285 282 283 283 279 278 279 281 282 282 282 285 287 289 291 294 296 296 291 274 255 252 259 263 251 248 249 254 253 254 257 265 269 270 269 267 266 266 267 270 276 280 283 286 289 291 292 292 292 291 290
345 323 310 310 305 303 303 313 318 318 310 303 302 304 306 301 294 287 277 269 265 263 262 258 252 245 240 238 246 257 270 275 276 273 270 264 259 259 264 268 268 267 267 273 279 283 286 289 291 292 291 290 292 296 298 294 288 281 276 267 261 258 258 254 250 249 253 260 264 266 266 263 262 262 265 274 280 285 289 291 292 292 292 291 290 288
334 307 291 279 259 247 261 288 290 280 269 272 279 286 289 283 278 274 272 264 259 254 251 251 254 259 262 268 268 267 269 266 262 257 252 248 247 248 255 263 264 261 257 263 270 277 281 286 290 293 292 288 287 290 298 303 302 297 290 280 270 262 257 254 250 245 245 253 261 265 267 266 265 265 269 276 282 287 288 287 287 288 288 288 288 287
302 283 274 261 243 226 218 237 245 247 242 248 259 271 277 276 273 269 267 263 260 256 251 249 252 259 266 272 275 275 274 268 260 253 249 245 244 246 252 258 261 260 256 255 258 263 269 273 279 285 290 293 294 295 297 299 300 301 301 296 286 269 253 249 245 243 244 251 262 269 273 272 272 273 273 276 278 279 279 280 280 280 282 285 287 287
271 264 261 256 246 232 224 237 241 243 243 267 285 295 299 298 296 294 288 283 282 280 276 273 270 269 269 273 274 274 273 269 264 259 252 246 242 242 246 252 256 260 259 255 254 255 258 264 268 273 279 286 292 295 297 296 299 303 306 306 303 296 288 279 268 259 253 253 261 270 277 276 274 270 269 268 267 267 269 272 276 278 278 278 281 286
258 258 258 260 262 267 271 264 253 235 254 336 336 332 320 317 317 319 321 321 317 313 311 314 311 304 300 291 280 271 267 264 261 258 253 246 242 241 242 245 249 254 256 255 254 253 253 259 265 269 273 278 284 287 289 291 295 299 302 301 299 298 300 295 287 278 270 264 262 266 275 280 281 279 275 273 269 265 262 266 270 274 275 267 263 266
263 264 268 278 286 288 286 279 250 111 82 46 6 331 312 306 304 306 317 321 316 313 314 319 317 311 308 300 289 277 266 260 255 252 249 244 240 238 239 240 242 245 248 252 253 253 251 256 261 265 270 275 281 284 286 288 290 293 293 293 296 298 298 294 289 282 281 278 274 272 277 283 284 283 281 278 274 269 264 262 264 268 272 266 258 252
255 259 269 284 290 292 292 307 342 32 36 9 337 315 301 292 279 269 276 283 287 287 287 281 278 280 286 288 286 282 275 266 257 251 246 240 236 234 234 236 237 239 240 247 252 255 254 254 257 261 265 270 274 278 282 286 288 288 286 288 293 298 299 299 298 297 292 290 287 283 280 281 281 280 279 278 275 271 266 265 266 267 269 268 264 258
257 264 272 275 276 282 329 7 14 7 354 335 318 306 298 290 282 277 276 269 273 278 282 277 272 271 274 278 276 273 274 272 268 262 254 243 233 228 229 232 234 236 234 241 249 257 260 259 258 259 261 265 268 272 276 281 284 285 284 284 284 284 283 291 298 301 298 295 293 289 283 281 281 282 282 280 277 273 268 265 264 264 264 262 261 260
266 275 277 272 263 252 18 358 352 343 329 314 303 296 294 286 280 275 271 271 275 279 278 278 277 278 277 279 278 278 283 283 284 283 277 265 254 244 234 231 232 234 233 236 242 249 258 263 265 266 264 264 265 267 271 276 280 282 282 282 281 278 276 282 288 292 293 292 291 287 282 280 282 285 286 284 282 278 272 268 265 263 261 258 256 256
255 261 265 269 279 297 307 314 316 310 299 294 289 285 286 282 277 271 266 266 269 271 271 268 269 276 283 291 295 296 296 292 288 283 281 279 273 261 245 236 232 232 232 235 238 242 246 255 263 269 273 270 267 264 264 269 274 278 280 281 281 280 279 280 281 282 284 286 286 284 281 280 282 284 284 284 282 279 273 267 263 261 260 258 256 255
237 241 248 265 284 299 303 304 299 294 289 284 279 276 279 278 276 273 270 266 264 266 270 266 266 271 279 287 291 294 295 293 289 282 271 270 269 265 257 247 240 236 234 236 238 239 242 245 250 257 265 270 270 269 266 265 267 271 275 278 279 279 278 278 277 277 277 279 279 281 281 282 282 282 282 283 283 282 280 275 269 265 262 261 261 260
233 242 258 278 288 293 289 288 284 282 281 280 274 270 272 272 273 273 273 269 271 275 280 277 275 273 275 277 279 282 287 289 290 287 279 269 263 258 255 255 252 247 244 242 242 242 242 242 242 244 249 256 263 268 269 267 265 266 270 273 275 276 276 276 276 275 274 273 272 271 272 275 278 280 284 286 286 286 286 283 279 274 270 269 270 271
257 277 286 289 287 283 278 275 274 274 276 276 273 267 264 268 273 276 275 274 275 276 277 275 274 274 275 276 277 279 282 284 285 284 281 272 264 259 256 253 252 253 253 249 247 246 246 243 239 236 235 240 249 258 265 265 264 264 266 267 269 271 273 274 275 275 275 274 271 267 265 268 270 274 281 285 286 287 288 287 286 283 280 277 275 273
303 293 288 283 277 271 267 267 270 273 276 274 272 268 260 259 261 264 266 267 267 267 267 268 271 273 276 278 279 280 280 280 281 281 277 272 269 268 266 261 260 262 263 259 255 254 254 251 243 235 230 229 233 242 255 260 262 263 263 262 263 266 270 273 275 276 276 276 275 272 269 270 271 274 279 283 286 288 289 288 287 285 282 277 271 268
297 289 282 276 272 269 268 268 269 271 272 272 272 271 269 266 265 266 267 267 267 268 268 269 270 272 275 278 279 279 279 280 281 282 279 277 276 277 275 271 271 273 276 277 275 273 273 273 268 253 236 228 226 228 238 247 254 260 262 260 259 260 265 270 273 274 274 275 276 277 276 276 277 277 278 282 285 286 287 286 284 281 279 275 272 269